+ View the NASA Portal
+ Center for Near-Earth Object Studies
IMPORTANT:
The SSD Announcement email list is now available. Major changes are coming in the near future, including possible hostname and/or URL changes. To be notified of such changes, subscribe to this email list.
Please visit
this page
for more details.
Don't show this message again
JPL Small-Body Database Browser
Search:
[
help
]
452830 (2006 RR58)
Classification:
Main-belt Asteroid
SPK-ID:
2452830
[
Ephemeris
|
Orbit Diagram
|
Orbital Elements
|
Mission Design
|
Physical Parameters
|
Discovery Circumstances
]
[ show orbit diagram ]
Orbital Elements at Epoch 2458600.5 (2019-Apr-27.0) TDB
Reference:
JPL 17
(heliocentric ecliptic J2000)
Element
Value
Uncertainty (1-sigma)
Units
e
.1935763361725951
1.1409e-07
a
2.741573852820788
4.5843e-08
au
q
2.210870031045155
3.2295e-07
au
i
9.201983928495745
1.9465e-05
deg
node
179.2470602693282
5.7285e-05
deg
peri
128.0016296894126
8.4939e-05
deg
M
321.849552755081
5.0657e-05
deg
t
p
2458776.209597503844
(2019-Oct-19.70959750)
0.00023295
TDB
period
1658.052779703878
4.54
4.1588e-05
1.139e-07
d
yr
n
.2171221594431358
5.4459e-09
deg/d
Q
3.272277674596422
5.4718e-08
au
Orbit Determination Parameters
# obs. used (total)
87
data-arc span
5194 days (14.22 yr)
first obs. used
2005-04-15
last obs. used
2019-07-05
planetary ephem.
DE431
SB-pert. ephem.
SB431-N16
condition code
0
norm. resid. RMS
.43397
source
ORB
producer
Otto Matic
solution date
2019-Sep-24 07:57:23
Additional Information
Earth MOID
= 1.20984 au
Jupiter MOID
= 2.08333 au
T_jup
= 3.304
[ show covariance matrix ]
[
Ephemeris
|
Orbit Diagram
|
Orbital Elements
|
Mission Design
|
Physical Parameters
|
Discovery Circumstances
]
Physical Parameter Table
Parameter
Symbol
Value
Units
Sigma
Reference
Notes
absolute magnitude
H
17.4
n/a
MPO440875
452830 (2006 RR58)
Discovered 2006-Sep-15 by Spacewatch at Kitt Peak
Reference:
Last Updated:
2016-01-04
[
Ephemeris
|
Orbit Diagram
|
Orbital Elements
|
Mission Design
|
Physical Parameters
|
Discovery Circumstances
]
2019-Dec-13 06:18 UT
(server date/time)
Site Manager:
Ryan S. Park
Webmaster
:
Alan B. Chamberlin